EN

Hourly Weather Lagiszyn

Today, 30 July, Friday

Time Temperature Precipitation Wind Pressure Humidity
00:00 +21°C° 0 mm 3 mps 750 mmHg 57%
01:00 +19°C° 0 mm 3 mps 750 mmHg 62%
02:00 +18°C° 0 mm 3 mps 749 mmHg 67%
03:00 +17°C° 0 mm 3 mps 749 mmHg 72%
04:00 +16°C° 0 mm 3 mps 749 mmHg 77%
05:00 +17°C° 0 mm 3 mps 749 mmHg 71%
06:00 +18°C° 0 mm 3 mps 749 mmHg 66%
07:00 +20°C° 0 mm 3 mps 750 mmHg 60%
08:00 +22°C° 0 mm 4 mps 749 mmHg 54%
09:00 +23°C° 0 mm 5 mps 749 mmHg 48%
10:00 +26°C° 0 mm 6 mps 749 mmHg 42%
11:00 +27°C° 0 mm 6 mps 749 mmHg 40%
12:00 +28°C° 0 mm 6 mps 748 mmHg 39%
13:00 +28°C° 0 mm 6 mps 748 mmHg 37%
14:00 +28°C° 0 mm 6 mps 748 mmHg 37%
15:00 +28°C° 0 mm 6 mps 747 mmHg 37%
16:00 +28°C° 0 mm 6 mps 747 mmHg 37%
17:00 +27°C° 0 mm 4 mps 747 mmHg 42%
18:00 +26°C° 0 mm 3 mps 747 mmHg 47%
19:00 +24°C° 0 mm 2 mps 747 mmHg 52%
20:00 +23°C° 0 mm 2 mps 747 mmHg 55%
21:00 +22°C° 0 mm 1 mps 747 mmHg 59%
22:00 +19°C° 0 mm 0 mps 747 mmHg 62%
23:00 +20°C° 0 mm 1 mps 747 mmHg 62%

Tomorrow, 31 July, Saturday

Time Temperature Precipitation Wind Pressure Humidity
00:00 +20°C° 0 mm 1 mps 747 mmHg 63%
01:00 +19°C° 0 mm 2 mps 747 mmHg 64%
02:00 +19°C° 0 mm 2 mps 747 mmHg 65%
03:00 +19°C° 0 mm 2 mps 747 mmHg 65%
04:00 +19°C° 0 mm 2 mps 746 mmHg 66%
05:00 +20°C° 0 mm 3 mps 747 mmHg 65%
06:00 +21°C° 0 mm 4 mps 747 mmHg 64%
07:00 +22°C° 0 mm 4 mps 747 mmHg 63%
08:00 +23°C° 0 mm 5 mps 747 mmHg 59%
09:00 +25°C° 0 mm 5 mps 747 mmHg 54%
10:00 +26°C° 0 mm 6 mps 747 mmHg 50%
11:00 +27°C° 0 mm 6 mps 747 mmHg 44%
12:00 +28°C° 0 mm 6 mps 747 mmHg 38%
13:00 +29°C° 0 mm 7 mps 747 mmHg 32%
14:00 +29°C° 0 mm 7 mps 746 mmHg 31%
15:00 +29°C° 0 mm 7 mps 746 mmHg 31%
16:00 +29°C° 0 mm 7 mps 746 mmHg 31%
17:00 +27°C° 0 mm 6 mps 746 mmHg 35%
18:00 +26°C° 0 mm 5 mps 746 mmHg 39%
19:00 +25°C° 0 mm 4 mps 746 mmHg 42%
20:00 +22°C° 0 mm 4 mps 747 mmHg 48%
21:00 +20°C° 0 mm 3 mps 747 mmHg 54%
22:00 +19°C° 0 mm 3 mps 748 mmHg 59%
23:00 +18°C° 0 mm 3 mps 748 mmHg 63%

Day after tomorrow, 1 August, Sunday

Time Temperature Precipitation Wind Pressure Humidity
00:00 +17°C° 0 mm 3 mps 748 mmHg 66%
01:00 +17°C° 0 mm 3 mps 748 mmHg 70%
02:00 +16°C° 0 mm 3 mps 747 mmHg 73%
03:00 +16°C° 0 mm 2 mps 747 mmHg 75%
04:00 +15°C° 0 mm 2 mps 747 mmHg 78%
05:00 +16°C° 0 mm 2 mps 747 mmHg 74%
06:00 +18°C° 0 mm 2 mps 748 mmHg 69%
07:00 +19°C° 0 mm 2 mps 748 mmHg 65%
08:00 +19°C° 0 mm 2 mps 748 mmHg 63%
09:00 +20°C° 0 mm 2 mps 748 mmHg 61%
10:00 +21°C° 0 mm 2 mps 748 mmHg 59%
11:00 +21°C° 0 mm 2 mps 748 mmHg 57%
12:00 +22°C° 0 mm 3 mps 748 mmHg 55%
13:00 +22°C° 0 mm 3 mps 748 mmHg 52%
14:00 +24°C° 0 mm 3 mps 748 mmHg 51%
15:00 +24°C° 0 mm 3 mps 748 mmHg 50%
16:00 +24°C° 0 mm 3 mps 748 mmHg 49%
17:00 +23°C° 0 mm 2 mps 747 mmHg 52%
18:00 +21°C° 0 mm 2 mps 747 mmHg 55%
19:00 +21°C° 0 mm 2 mps 747 mmHg 58%
20:00 +20°C° 0 mm 2 mps 747 mmHg 61%
21:00 +19°C° 0 mm 2 mps 748 mmHg 64%
22:00 +18°C° 0 mm 2 mps 748 mmHg 66%
23:00 +17°C° 0 mm 2 mps 748 mmHg 71%

2 August, Monday

Time Temperature Precipitation Wind Pressure Humidity
00:00 +17°C° 0 mm 2 mps 748 mmHg 75%
01:00 +16°C° 0 mm 2 mps 748 mmHg 80%
02:00 +16°C° 0 mm 2 mps 748 mmHg 82%
03:00 +15°C° 0 mm 2 mps 748 mmHg 85%
04:00 +14°C° 0 mm 3 mps 748 mmHg 88%
05:00 +16°C° 0 mm 3 mps 748 mmHg 82%
06:00 +17°C° 0 mm 4 mps 748 mmHg 75%
07:00 +19°C° 0 mm 4 mps 748 mmHg 68%
08:00 +20°C° 0.1 mm 5 mps 749 mmHg 64%
09:00 +21°C° 0.1 mm 6 mps 749 mmHg 60%
10:00 +22°C° 0.1 mm 6 mps 749 mmHg 56%
11:00 +22°C° 0.3 mm 6 mps 749 mmHg 58%
12:00 +22°C° 0.3 mm 6 mps 749 mmHg 60%
13:00 +22°C° 0.3 mm 6 mps 750 mmHg 62%
14:00 +22°C° 0.1 mm 6 mps 750 mmHg 58%
15:00 +22°C° 0.1 mm 6 mps 750 mmHg 53%
16:00 +22°C° 0.1 mm 5 mps 750 mmHg 49%
17:00 +22°C° 0 mm 5 mps 750 mmHg 50%
18:00 +21°C° 0 mm 4 mps 751 mmHg 50%
19:00 +20°C° 0 mm 4 mps 751 mmHg 51%
20:00 +18°C° 0 mm 3 mps 751 mmHg 55%
21:00 +17°C° 0 mm 3 mps 751 mmHg 60%
22:00 +16°C° 0 mm 2 mps 752 mmHg 65%
23:00 +16°C° 0 mm 2 mps 752 mmHg 64%

3 August, Tuesday

Time Temperature Precipitation Wind Pressure Humidity
00:00 +16°C° 0 mm 2 mps 752 mmHg 64%
01:00 +17°C° 0 mm 2 mps 752 mmHg 63%
02:00 +16°C° 0 mm 2 mps 752 mmHg 70%
03:00 +15°C° 0 mm 2 mps 752 mmHg 77%
04:00 +14°C° 0 mm 2 mps 752 mmHg 84%
05:00 +15°C° 0 mm 2 mps 752 mmHg 78%
06:00 +16°C° 0 mm 2 mps 752 mmHg 71%
07:00 +18°C° 0 mm 2 mps 752 mmHg 65%
08:00 +19°C° 0 mm 2 mps 752 mmHg 60%
09:00 +21°C° 0 mm 2 mps 752 mmHg 55%
10:00 +23°C° 0 mm 2 mps 752 mmHg 50%
11:00 +24°C° 0.1 mm 2 mps 752 mmHg 48%
12:00 +25°C° 0.1 mm 2 mps 751 mmHg 46%
13:00 +25°C° 0.1 mm 3 mps 751 mmHg 44%
14:00 +24°C° 0.2 mm 3 mps 751 mmHg 52%
15:00 +22°C° 0.2 mm 4 mps 751 mmHg 60%
16:00 +21°C° 0.2 mm 5 mps 751 mmHg 68%
17:00 +20°C° 0.6 mm 4 mps 751 mmHg 73%
18:00 +19°C° 0.6 mm 4 mps 751 mmHg 79%
19:00 +18°C° 0.6 mm 3 mps 751 mmHg 85%
20:00 +17°C° 0.5 mm 2 mps 751 mmHg 87%
21:00 +17°C° 0.5 mm 2 mps 751 mmHg 89%
22:00 +16°C° 0.5 mm 1 mps 751 mmHg 91%
23:00 +16°C° 0.1 mm 1 mps 751 mmHg 91%

4 August, Wednesday

Time Temperature Precipitation Wind Pressure Humidity
00:00 +15°C° 0.1 mm 2 mps 751 mmHg 92%
01:00 +15°C° 0.1 mm 2 mps 751 mmHg 93%
02:00 +15°C° 0 mm 2 mps 751 mmHg 94%
03:00 +14°C° 0 mm 2 mps 751 mmHg 94%
04:00 +14°C° 0 mm 2 mps 751 mmHg 95%
05:00 +14°C° 0 mm 3 mps 751 mmHg 91%
06:00 +16°C° 0 mm 3 mps 751 mmHg 88%
07:00 +16°C° 0 mm 3 mps 752 mmHg 84%
08:00 +18°C° 0 mm 3 mps 752 mmHg 78%
09:00 +19°C° 0 mm 3 mps 752 mmHg 72%
10:00 +20°C° 0 mm 3 mps 752 mmHg 66%
11:00 +21°C° 0.1 mm 3 mps 751 mmHg 62%
12:00 +22°C° 0.1 mm 3 mps 751 mmHg 59%
13:00 +24°C° 0.1 mm 3 mps 751 mmHg 55%
14:00 +22°C° 0.5 mm 3 mps 751 mmHg 56%
15:00 +22°C° 0.5 mm 3 mps 751 mmHg 58%
16:00 +22°C° 0.5 mm 4 mps 751 mmHg 59%
17:00 +21°C° 0.4 mm 4 mps 751 mmHg 66%
18:00 +19°C° 0.4 mm 4 mps 751 mmHg 73%
19:00 +18°C° 0.4 mm 4 mps 751 mmHg 80%
20:00 +18°C° 0 mm 4 mps 751 mmHg 82%
21:00 +17°C° 0 mm 4 mps 751 mmHg 84%
22:00 +15°C° 0 mm 4 mps 751 mmHg 86%
23:00 +15°C° 0.1 mm 4 mps 751 mmHg 87%
Show more